GW6408 Weather Reports


time (UTC)temp
C
wind
direction
speed
KPH
gust
KPH
rain 1hr
cm
rain 24hr
cm
rain mn
cm
humidity
%
barometer
mb
20260504000021 15 270 0.0 1.6 0.00 0.00 0.00 39 1016.7
20260503234523 15 284 0.0 6.4 0.00 0.00 0.00 37 1016.7
20260503233022 15 305 1.6 8.0 0.00 0.00 0.00 35 1016.6
20260503231514 15 263 0.0 4.8 0.00 0.00 0.00 35 1016.5
20260503230017 16 310 1.6 14.5 0.00 0.00 0.00 33 1016.5
20260503224522 16 327 3.2 12.9 0.00 0.00 0.00 33 1016.6
20260503223022 17 316 3.2 11.3 0.00 0.00 0.00 32 1016.6
20260503221513 16 5 8.0 19.3 0.00 0.00 0.00 31 1016.5
20260503220027 16 15 8.0 16.1 0.00 0.00 0.00 31 1016.4
20260503214509 16 19 6.4 20.9 0.00 0.00 0.00 31 1016.5
20260503213005 16 360 11.3 20.9 0.00 0.00 0.00 30 1016.5
20260503211514 16 15 11.3 16.1 0.00 0.00 0.00 30 1016.5
20260503210018 16 344 9.7 17.7 0.00 0.00 0.00 30 1016.4
20260503204529 16 279 4.8 16.1 0.00 0.00 0.00 30 1016.4
20260503203006 16 337 12.9 20.9 0.00 0.00 0.00 30 1016.5
20260503201506 16 349 12.9 24.1 0.00 0.00 0.00 30 1016.6
20260503200012 16 326 14.5 29.0 0.00 0.00 0.00 30 1016.6
20260503194521 16 360 14.5 24.1 0.00 0.00 0.00 31 1016.8
20260503193022 16 352 8.0 22.5 0.00 0.00 0.00 31 1017.0
20260503191504 16 360 19.3 27.4 0.00 0.00 0.00 32 1017.2
20260503190038 15 348 16.1 25.7 0.00 0.00 0.00 32 1017.3
20260503184526 15 320 8.0 25.7 0.00 0.00 0.00 33 1017.5
20260503183021 15 337 12.9 27.4 0.00 0.00 0.00 35 1017.4
20260503181512 15 13 8.0 25.7 0.00 0.00 0.00 34 1017.5
20260503180016 15 324 14.5 25.7 0.00 0.00 0.00 35 1017.5
20260503174512 15 331 14.5 22.5 0.00 0.00 0.00 35 1017.6
20260503173019 15 350 14.5 27.4 0.00 0.00 0.00 36 1017.8
20260503171528 14 352 14.5 33.8 0.00 0.00 0.00 37 1017.9
20260503081526 11 5 6.4 16.1 0.00 0.00 0.00 60 1013.8
20260503071530 11 360 8.0 16.1 0.00 0.00 0.00 60 1013.2
20260503054535 11 329 4.8 8.0 0.00 0.00 0.00 1012.5
20260503053017 11 332 1.6 6.4 0.00 0.00 0.00 59 1012.8
20260503051520 11 352 3.2 6.4 0.00 0.00 0.00 58 1012.9
20260503050028 12 345 4.8 9.7 0.00 0.00 0.00 57 1012.8
20260503044528 12 334 3.2 9.7 0.00 0.00 0.00 58 1012.9
20260503043025 12 348 3.2 8.0 0.00 0.00 0.00 57 1012.9
20260503041519 12 16 3.2 8.0 0.00 0.00 0.00 58 1012.9
20260503040013 12 333 4.8 8.0 0.00 0.00 0.00 58 1012.9
20260503034504 12 319 3.2 8.0 0.00 0.00 0.00 59 1012.9
20260503033008 12 320 3.2 8.0 0.00 0.00 0.00 59 1012.8
20260503031516 12 325 6.4 12.9 0.00 0.00 0.00 58 1012.6
20260503030020 12 325 4.8 9.7 0.00 0.00 0.00 58 1012.8
20260503024504 13 339 3.2 8.0 0.00 0.00 0.00 58 1013.0
20260503023008 13 328 4.8 8.0 0.00 0.00 0.00 57 1012.9
20260503021517 13 9 3.2 9.7 0.00 0.00 0.00 56 1012.9
20260503020018 13 348 6.4 12.9 0.00 0.00 0.00 56 1012.8
20260503014531 13 350 4.8 9.7 0.00 0.00 0.00 55 1012.8
20260503013004 13 36 6.4 9.7 0.00 0.00 0.00 54 1012.6
20260503011524 13 30 3.2 8.0 0.00 0.00 0.00 53 1012.4
20260503010017 13 352 4.8 12.9 0.00 0.00 0.00 52 1012.5
20260503004550 13 36 4.8 9.7 0.00 0.00 0.00 53 1012.4
20260503003022 13 31 6.4 12.9 0.00 0.00 0.00 53 1012.2
20260503001508 13 38 4.8 20.9 0.00 0.00 0.00 54 1012.1